735  
ASUS44 KMEG 221810  
RWRMEG  
MEMPHIS CWA HOURLY WEATHER ROUNDUP  
NATIONAL WEATHER SERVICE MEMPHIS TN  
100 PM CDT MON JUL 22 2019  
   
..WEST TENNESSEE
 
 
 
CITY SKY/WX TMP DP RH WIND PRES REMARKS
 
MEMPHIS INTL PTSUNNY 87 78 74 SW12G18 29.93F HX 100  
6HR MIN TEMP: 76; 6HR MAX TEMP: 86;  
 
NWS MEMPHIS N/A 84 N/A N/A MISG N/A  
JACKSON PTSUNNY 86 77 74 W10G20 29.93S HX 97  
6HR MIN TEMP: 76; 6HR MAX TEMP: 88;  
 
COVINGTON CLOUDY 82 77 83 W7 29.92S HX 91  
SOMERVILLE CLOUDY 82 75 78 SW7G14 29.93S  
BOLIVAR CLOUDY 84 77 79 SW9 29.92F HX 94  
LEXINGTON PTSUNNY 86 77 74 SW16 29.91F HX 97  
SELMER PTSUNNY 84 75 74 VRB7G15 29.93F HX 92  
DYERSBURG TSTM 74 73 97 CALM 29.95R  
6HR MIN TEMP: 73; 6HR MAX TEMP: 83;  
 
UNION CITY CLOUDY 73 72 94 CALM 29.91F  
PARIS CLOUDY 79 77 94 W5 29.93R  
HUNTINGDON PTSUNNY 82 77 83 SW5 29.92R HX 91  
 
   
..EASTERN ARKANSAS
 
 
 
CITY SKY/WX TMP DP RH WIND PRES REMARKS
 
JONESBORO CLOUDY 80 71 74 VRB6 29.95R  
6HR MIN TEMP: 78; 6HR MAX TEMP: 83;  
 
WEST MEMPHIS CLOUDY 85 79 82 VRB6 29.92S HX 98  
6HR MIN TEMP: 79; 6HR MAX TEMP: 85;  
 
BATESVILLE CLOUDY 80 74 81 NW8 29.98S  
6HR MIN TEMP: 76; 6HR MAX TEMP: 81;  
 
NEWPORT PTSUNNY 81 75 83 N14 29.95F  
6HR MIN TEMP: 77; 6HR MAX TEMP: 84;  
 
WALNUT RIDGE PTSUNNY 81 74 79 NW15 29.95F  
6HR MIN TEMP: 77; 6HR MAX TEMP: 82;  
 
BLYTHEVILLE PTSUNNY 78 74 87 NE10 29.94F  
6HR MIN TEMP: 75; 6HR MAX TEMP: 82; 6HR PCP: 0.60;  
 
SEARCY FAIR 86 76 71 VRB3 29.95F HX 96  
6HR MIN TEMP: 77; 6HR MAX TEMP: 87;  
 
STUTTGART FAIR 85 77 77 W8 29.96F HX 95  
6HR MIN TEMP: 76; 6HR MAX TEMP: 86;  
 
PINE BLUFF FAIR 87 70 56 N10 29.96F HX 92  
6HR MIN TEMP: 74; 6HR MAX TEMP: 87;  
 
MONTICELLO FAIR 89 75 63 VRB7 29.96F HX 99  
6HR MIN TEMP: 75; 6HR MAX TEMP: 89;  
 
   
..NORTH MISSISSIPPI
 
 
 
CITY SKY/WX TMP DP RH WIND PRES REMARKS
 
TUPELO FAIR 86 74 67 SW6 29.95F HX 94  
6HR MIN TEMP: 76; 6HR MAX TEMP: 87;  
 
OXFORD CLOUDY 84 73 70 S8 29.97F HX 91  
BATESVILLE CLOUDY 82 77 83 W6 29.95F HX 91  
OLIVE BRANCH CLOUDY 82 75 78 SW12 29.94F  
TUNICA N/A 86 75 70 SW8 29.94F HX 95  
CLARKSDALE N/A 86 81 84 SW8G15 29.94F HX 102  
CORINTH PTSUNNY 84 73 70 SW8 29.94F HX 91  
GREENWOOD FAIR 87 74 64 CALM 29.95F HX 95  
6HR MIN TEMP: 73; 6HR MAX TEMP: 87;  
 
COLUMBUS PTSUNNY 86 73 66 CALM 29.96F HX 93  
6HR MIN TEMP: 74; 6HR MAX TEMP: 86;  
 
STARKVILLE FAIR 84 72 65 S5 29.98F  
GOLDEN TRIANGL FAIR 85 75 72 S7 29.98F HX 93  
6HR MIN TEMP: 73; 6HR MAX TEMP: 85;  
 
   
..SOUTHEAST MISSOURI
 
 
 
CITY SKY/WX TMP DP RH WIND PRES REMARKS
 
KENNETT PTSUNNY 81 77 89 N9 29.93R  
MALDEN FAIR 79 73 83 MISG 29.95F  
WEST PLAINS CLOUDY 73 67 81 N14G25 30.06R  
6HR MIN TEMP: 71; 6HR MAX TEMP: 78; 6HR PCP: 0.01;  
 
POPLAR BLUFF CLOUDY 76 75 97 N15 29.95S  
6HR MIN TEMP: 75; 6HR MAX TEMP: 82; 6HR PCP: 0.25;  
 
CAPE GIRARDEAU CLOUDY 76 71 85 NE14 29.94S  
6HR MIN TEMP: 74; 6HR MAX TEMP: 78; 6HR PCP: 0.44;  
 
   
..NORTHWEST ALABAMA
 
 
 
CITY SKY/WX TMP DP RH WIND PRES REMARKS
 
MUSCLE SHOALS PTSUNNY 86 73 65 SW8 29.96F HX 93  
6HR MIN TEMP: 77; 6HR MAX TEMP: 88;  
 
   
..MIDDLE TENNESSEE
 
 
 
CITY SKY/WX TMP DP RH WIND PRES REMARKS
 
NASHVILLE PTSUNNY 89 73 59 VRB6 29.93F HX 97  
6HR MIN TEMP: 78; 6HR MAX TEMP: 89;  
 
CLARKSVILLE N/A 74 72 93 MISG 29.94R  
6HR MIN TEMP: 75; 6HR MAX TEMP: 87; 6HR PCP: 0.20;  
 
COLUMBIA SUNNY 86 77 74 SW12 29.92F HX 97  
LAWRENCEBURG MOCLDY 81 75 83 S5G14 29.96F  
LEWISBURG PTCLDY 84 75 74 SW12 29.94F HX 92  
 
   
..WESTERN KENTUCKY
 
 
 
CITY SKY/WX TMP DP RH WIND PRES REMARKS
 
PADUCAH TSTM 76 73 91 N10 29.92F FOG  
6HR MIN TEMP: 76; 6HR MAX TEMP: 83; 6HR PCP: 0.18;  
 
FORT CAMPBELL PTSUNNY 73 73 100 NE8 29.94  
6HR MIN TEMP: 73; 6HR MAX TEMP: 84; 6HR PCP: TRACE;  
 
   
..CENTRAL ARKANSAS
 
 
 
CITY SKY/WX TMP DP RH WIND PRES REMARKS
 
LITTLE ROCK PTSUNNY 86 72 62 NW14 29.97F HX 92  
6HR MIN TEMP: 76; 6HR MAX TEMP: 87;  
 
SKY/WX REPORTED AS FAIR MEANS FEW OR NO CLOUDS BELOW  
12 THOUSAND FEET.  
 
 
 
CLICK HERE TO GO TO PREVIOUS BULLETINS.

The Nexlab TN Page
The Nexlab MS Page
The Nexlab AR Page Main Text Page